Time,TemperatureF,DewpointF,PressureIn,WindDirection,WindDirectionDegrees,WindSpeedMPH,WindSpeedGustMPH,Humidity,HourlyPrecipIn,Conditions,Clouds,dailyrainin,SolarRadiationWatts/m^2,SoftwareType,DateUTC
2013-11-12 00:01:00,52.3,38.5,29.94,SW,235,4.0,15.0,59,0.00,,,0.00,0.0,meteohub,2013-11-12 05:01:00,
2013-11-12 00:02:00,52.3,38.8,29.93,SSW,203,4.0,15.0,60,0.00,,,0.00,0.0,meteohub,2013-11-12 05:02:00,
2013-11-12 00:03:00,52.3,38.8,29.94,SW,223,4.0,15.0,60,0.00,,,0.00,0.0,meteohub,2013-11-12 05:03:00,
2013-11-12 00:05:00,52.3,38.8,29.93,SW,215,9.0,15.0,60,0.00,,,0.00,0.0,meteohub,2013-11-12 05:05:00,
2013-11-12 00:10:00,52.3,38.8,29.93,SW,222,4.0,15.0,60,0.00,,,0.00,0.0,meteohub,2013-11-12 05:10:00,
2013-11-12 00:15:00,52.3,38.8,29.93,SW,225,7.0,13.0,60,0.00,,,0.00,0.0,meteohub,2013-11-12 05:15:00,
2013-11-12 00:20:00,52.3,38.8,29.93,WNW,290,8.0,13.0,60,0.00,,,0.00,0.0,meteohub,2013-11-12 05:20:00,
2013-11-12 00:26:00,52.3,39.4,29.93,SW,221,3.0,17.0,61,0.00,,,0.00,0.0,meteohub,2013-11-12 05:26:00,
2013-11-12 00:31:00,52.3,39.4,29.93,SW,217,4.0,17.0,61,0.00,,,0.00,0.0,meteohub,2013-11-12 05:31:00,
2013-11-12 00:36:00,52.3,39.4,29.92,SSW,207,5.0,17.0,61,0.00,,,0.00,0.0,meteohub,2013-11-12 05:36:00,
2013-11-12 00:41:00,52.3,39.4,29.92,SSW,196,1.0,16.0,61,0.00,,,0.00,0.0,meteohub,2013-11-12 05:41:00,
2013-11-12 00:46:00,52.3,39.4,29.92,West,265,5.0,18.0,61,0.00,,,0.00,0.0,meteohub,2013-11-12 05:46:00,
2013-11-12 00:51:00,52.3,39.7,29.92,WSW,237,3.0,18.0,62,0.00,,,0.00,0.0,meteohub,2013-11-12 05:51:00,
2013-11-12 00:57:00,52.3,39.7,29.92,SW,214,8.0,15.0,62,0.00,,,0.00,0.0,meteohub,2013-11-12 05:57:00,
2013-11-12 01:02:00,52.3,40.1,29.92,WNW,288,9.0,17.0,63,0.00,,,0.00,0.0,meteohub,2013-11-12 06:02:00,
2013-11-12 01:07:00,52.3,39.7,29.91,SW,227,7.0,19.0,62,0.00,,,0.00,0.0,meteohub,2013-11-12 06:07:00,
2013-11-12 01:12:00,52.3,38.8,29.91,WSW,254,4.0,19.0,60,0.00,,,0.00,0.0,meteohub,2013-11-12 06:12:00,
2013-11-12 01:17:00,52.3,37.9,29.91,SSW,206,2.0,21.0,58,0.00,,,0.00,0.0,meteohub,2013-11-12 06:17:00,
2013-11-12 01:22:00,52.3,37.6,29.91,West,263,11.0,21.0,57,0.00,,,0.00,0.0,meteohub,2013-11-12 06:22:00,
2013-11-12 01:27:00,52.3,37.6,29.91,SW,217,4.0,21.0,57,0.00,,,0.00,0.0,meteohub,2013-11-12 06:27:00,
2013-11-12 01:32:00,52.3,37.0,29.91,WNW,303,11.0,20.0,56,0.00,,,0.00,0.0,meteohub,2013-11-12 06:32:00,
2013-11-12 01:37:00,52.2,36.9,29.91,SW,236,6.0,20.0,56,0.00,,,0.00,0.0,meteohub,2013-11-12 06:37:00,
2013-11-12 01:42:00,52.2,37.4,29.91,West,267,14.0,17.0,57,0.00,,,0.00,0.0,meteohub,2013-11-12 06:42:00,
2013-11-12 01:47:00,52.2,37.4,29.91,NW,306,7.0,17.0,57,0.00,,,0.00,0.0,meteohub,2013-11-12 06:47:00,
2013-11-12 01:52:00,52.2,37.4,29.91,SW,223,0.0,18.0,57,0.00,,,0.00,0.0,meteohub,2013-11-12 06:52:00,
2013-11-12 01:57:00,52.0,37.2,29.91,West,279,8.0,18.0,57,0.00,,,0.00,0.0,meteohub,2013-11-12 06:57:00,
2013-11-12 02:02:00,52.0,37.2,29.91,SW,236,12.0,18.0,57,0.00,,,0.00,0.0,meteohub,2013-11-12 07:02:00,
2013-11-12 02:07:00,52.0,37.2,29.91,WSW,241,5.0,14.0,57,0.00,,,0.00,0.0,meteohub,2013-11-12 07:07:00,
2013-11-12 02:12:00,52.0,37.2,29.91,WNW,299,1.0,18.0,57,0.00,,,0.00,0.0,meteohub,2013-11-12 07:12:00,
2013-11-12 02:17:00,52.0,37.2,29.92,SW,221,8.0,18.0,57,0.00,,,0.00,0.0,meteohub,2013-11-12 07:17:00,
2013-11-12 02:22:00,51.8,37.6,29.89,NW,310,2.0,18.0,58,0.00,,,0.00,0.0,meteohub,2013-11-12 07:22:00,
2013-11-12 02:27:00,51.6,37.4,29.92,SSW,210,4.0,17.0,58,0.00,,,0.00,0.0,meteohub,2013-11-12 07:27:00,
2013-11-12 02:32:00,51.4,37.6,29.92,West,259,1.0,17.0,59,0.00,,,0.00,0.0,meteohub,2013-11-12 07:32:00,
2013-11-12 02:37:00,51.4,37.9,29.92,SW,230,1.0,13.0,60,0.00,,,0.00,0.0,meteohub,2013-11-12 07:37:00,
2013-11-12 02:42:00,51.3,38.3,29.92,SW,218,4.0,13.0,61,0.00,,,0.00,0.0,meteohub,2013-11-12 07:42:00,
2013-11-12 02:47:00,51.1,38.5,29.91,West,265,5.0,13.0,62,0.00,,,0.00,0.0,meteohub,2013-11-12 07:47:00,
2013-11-12 02:52:00,50.7,38.1,29.92,West,276,5.0,12.0,62,0.00,,,0.00,0.0,meteohub,2013-11-12 07:52:00,
2013-11-12 02:57:00,50.5,38.5,29.91,WSW,247,0.0,11.0,63,0.00,,,0.00,0.0,meteohub,2013-11-12 07:57:00,
2013-11-12 03:02:00,50.5,38.5,29.91,SW,225,3.0,11.0,63,0.00,,,0.00,0.0,meteohub,2013-11-12 08:02:00,
2013-11-12 03:07:00,50.4,38.3,29.91,WNW,291,5.0,9.0,63,0.00,,,0.00,0.0,meteohub,2013-11-12 08:07:00,
2013-11-12 03:12:00,50.4,37.8,29.91,NW,318,5.0,9.0,62,0.00,,,0.00,0.0,meteohub,2013-11-12 08:12:00,
2013-11-12 03:17:00,50.4,38.7,29.90,NNW,336,2.0,11.0,64,0.00,,,0.00,0.0,meteohub,2013-11-12 08:17:00,
2013-11-12 03:22:00,50.2,38.8,29.90,WNW,296,6.0,11.0,65,0.00,,,0.00,0.0,meteohub,2013-11-12 08:22:00,
2013-11-12 03:27:00,50.0,37.9,29.91,WSW,240,0.0,11.0,63,0.00,,,0.00,0.0,meteohub,2013-11-12 08:27:00,
2013-11-12 03:32:00,49.8,37.8,29.91,WSW,241,0.0,9.0,63,0.00,,,0.00,0.0,meteohub,2013-11-12 08:32:00,
2013-11-12 03:37:00,49.8,37.8,29.91,WNW,302,0.0,9.0,63,0.00,,,0.00,0.0,meteohub,2013-11-12 08:37:00,
2013-11-12 03:42:00,49.6,37.2,29.91,NW,324,5.0,9.0,62,0.00,,,0.00,0.0,meteohub,2013-11-12 08:42:00,
2013-11-12 03:47:00,49.6,37.9,29.90,NNW,345,7.0,9.0,64,0.00,,,0.00,0.0,meteohub,2013-11-12 08:47:00,
2013-11-12 03:52:00,49.6,37.6,29.90,NW,307,2.0,9.0,63,0.00,,,0.00,0.0,meteohub,2013-11-12 08:52:00,
2013-11-12 03:57:00,49.6,37.2,29.90,NNW,338,8.0,15.0,62,0.00,,,0.00,0.0,meteohub,2013-11-12 08:57:00,
2013-11-12 04:02:00,49.6,37.2,29.91,NW,307,13.0,15.0,62,0.00,,,0.00,0.0,meteohub,2013-11-12 09:02:00,
2013-11-12 04:07:00,49.5,37.4,29.93,WNW,290,4.0,18.0,63,0.00,,,0.00,0.0,meteohub,2013-11-12 09:07:00,
2013-11-12 04:12:00,49.1,37.4,29.93,North,350,10.0,20.0,64,0.00,,,0.00,0.0,meteohub,2013-11-12 09:12:00,
2013-11-12 04:17:00,48.7,37.9,29.93,NNW,328,9.0,20.0,66,0.00,,,0.00,0.0,meteohub,2013-11-12 09:17:00,
2013-11-12 04:22:00,48.4,37.9,29.93,NNW,341,12.0,20.0,67,0.00,,,0.00,0.0,meteohub,2013-11-12 09:22:00,
2013-11-12 04:27:00,48.0,38.3,29.93,North,349,11.0,20.0,69,0.00,,,0.00,0.0,meteohub,2013-11-12 09:27:00,
2013-11-12 04:32:00,47.5,38.1,29.93,NW,315,6.0,21.0,70,0.00,,,0.00,0.0,meteohub,2013-11-12 09:32:00,
2013-11-12 04:37:00,47.1,38.1,29.93,NW,315,5.0,21.0,71,0.00,,,0.00,0.0,meteohub,2013-11-12 09:37:00,
2013-11-12 04:42:00,46.9,38.3,29.93,WNW,294,11.0,21.0,72,0.00,,,0.00,0.0,meteohub,2013-11-12 09:42:00,
2013-11-12 04:47:00,46.8,38.8,29.93,WNW,302,5.0,16.0,74,0.00,,,0.00,0.0,meteohub,2013-11-12 09:47:00,
2013-11-12 04:52:00,46.4,38.5,29.93,NNW,339,4.0,13.0,74,0.00,,,0.00,0.0,meteohub,2013-11-12 09:52:00,
2013-11-12 04:57:00,46.2,38.7,29.93,NNW,333,6.0,13.0,75,0.00,,,0.00,0.0,meteohub,2013-11-12 09:57:00,
2013-11-12 05:02:00,46.2,38.7,29.93,NW,315,9.0,9.0,75,0.00,,,0.00,0.0,meteohub,2013-11-12 10:02:00,
2013-11-12 05:07:00,46.0,38.5,29.93,NW,319,10.0,16.0,75,0.00,,,0.00,0.0,meteohub,2013-11-12 10:07:00,
2013-11-12 05:12:00,46.0,38.8,29.94,NNW,327,5.0,16.0,76,0.00,,,0.00,0.0,meteohub,2013-11-12 10:12:00,
2013-11-12 05:17:00,45.9,38.7,29.94,WNW,300,7.0,16.0,76,0.00,,,0.00,0.0,meteohub,2013-11-12 10:17:00,
2013-11-12 05:22:00,45.9,38.7,29.94,North,355,10.0,14.0,76,0.00,,,0.00,0.0,meteohub,2013-11-12 10:22:00,
2013-11-12 05:27:00,45.3,38.1,29.96,NNE,28,16.0,18.0,76,0.00,,,0.00,0.0,meteohub,2013-11-12 10:27:00,
2013-11-12 05:32:00,43.9,36.5,29.98,NNE,15,14.0,24.0,75,0.00,,,0.00,0.0,meteohub,2013-11-12 10:32:00,
2013-11-12 05:37:00,42.4,35.4,29.97,North,0,13.0,27.0,76,0.00,,,0.00,0.0,meteohub,2013-11-12 10:37:00,
2013-11-12 05:42:00,41.7,35.1,29.96,NNE,13,14.0,27.0,77,0.00,,,0.00,0.0,meteohub,2013-11-12 10:42:00,
2013-11-12 05:47:00,41.2,35.2,29.96,North,0,8.0,26.0,79,0.00,,,0.00,0.0,meteohub,2013-11-12 10:47:00,
2013-11-12 05:52:00,40.8,35.1,29.97,North,9,2.0,22.0,80,0.00,,,0.00,0.0,meteohub,2013-11-12 10:52:00,
2013-11-12 05:57:00,40.6,35.2,29.98,NNE,13,7.0,22.0,81,0.00,,,0.00,0.0,meteohub,2013-11-12 10:57:00,
2013-11-12 06:02:00,40.6,35.6,29.98,NNE,19,6.0,15.0,82,0.00,,,0.00,0.0,meteohub,2013-11-12 11:02:00,
2013-11-12 06:07:00,40.5,35.8,29.99,NNW,338,7.0,15.0,83,0.00,,,0.00,0.0,meteohub,2013-11-12 11:07:00,
2013-11-12 06:12:00,40.1,35.4,29.99,NW,313,11.0,15.0,83,0.00,,,0.00,0.0,meteohub,2013-11-12 11:12:00,
2013-11-12 06:17:00,39.7,35.1,30.00,North,350,16.0,19.0,83,0.00,,,0.00,0.0,meteohub,2013-11-12 11:17:00,
2013-11-12 06:22:00,39.4,34.9,30.00,North,349,11.0,22.0,84,0.00,,,0.00,0.0,meteohub,2013-11-12 11:22:00,
2013-11-12 06:27:00,38.8,34.3,30.00,NNW,336,10.0,22.0,84,0.00,,,0.00,0.0,meteohub,2013-11-12 11:27:00,
2013-11-12 06:32:00,38.7,34.5,30.01,NE,51,8.0,22.0,85,0.01,,,0.01,0.0,meteohub,2013-11-12 11:32:00,
2013-11-12 06:37:00,38.3,34.2,30.01,North,0,7.0,20.0,85,0.01,,,0.01,0.0,meteohub,2013-11-12 11:37:00,
2013-11-12 06:42:00,38.1,34.0,30.02,NNW,337,8.0,16.0,85,0.01,,,0.01,0.0,meteohub,2013-11-12 11:42:00,
2013-11-12 06:47:00,37.8,33.6,30.02,NNW,348,8.0,16.0,85,0.01,,,0.01,0.0,meteohub,2013-11-12 11:47:00,
2013-11-12 06:52:00,37.6,33.8,30.02,North,355,5.0,16.0,86,0.01,,,0.01,0.0,meteohub,2013-11-12 11:52:00,
2013-11-12 06:57:00,37.4,33.6,30.03,NNE,33,22.0,22.0,86,0.01,,,0.01,0.0,meteohub,2013-11-12 11:57:00,
2013-11-12 07:02:00,37.0,33.3,30.03,NNE,14,19.0,24.0,86,0.01,,,0.01,7.0,meteohub,2013-11-12 12:02:00,
2013-11-12 07:07:00,36.7,32.9,30.03,North,350,10.0,26.0,86,0.01,,,0.01,9.0,meteohub,2013-11-12 12:07:00,
2013-11-12 07:12:00,36.3,32.5,30.04,NNW,328,13.0,26.0,86,0.01,,,0.01,9.0,meteohub,2013-11-12 12:12:00,
2013-11-12 07:17:00,36.1,32.7,30.04,NNW,336,9.0,26.0,87,0.01,,,0.01,11.0,meteohub,2013-11-12 12:17:00,
2013-11-12 07:22:00,36.0,32.5,30.04,NNW,327,5.0,19.0,87,0.01,,,0.01,12.0,meteohub,2013-11-12 12:22:00,
2013-11-12 07:27:00,35.8,32.4,30.04,WNW,288,11.0,19.0,87,0.00,,,0.01,12.0,meteohub,2013-11-12 12:27:00,
2013-11-12 07:32:00,35.4,32.0,30.04,NNW,346,2.0,18.0,87,0.00,,,0.01,12.0,meteohub,2013-11-12 12:32:00,
2013-11-12 07:37:00,35.2,31.8,30.04,NW,314,9.0,18.0,87,0.01,,,0.02,14.0,meteohub,2013-11-12 12:37:00,
2013-11-12 07:42:00,35.2,32.0,30.04,NNW,329,8.0,18.0,88,0.01,,,0.02,14.0,meteohub,2013-11-12 12:42:00,
2013-11-12 07:47:00,35.1,31.8,30.05,NNW,342,14.0,19.0,88,0.01,,,0.02,19.0,meteohub,2013-11-12 12:47:00,
2013-11-12 07:52:00,34.3,31.1,30.05,NNW,348,14.0,29.0,88,0.01,,,0.02,18.0,meteohub,2013-11-12 12:52:00,
2013-11-12 07:57:00,34.0,30.7,30.06,NW,311,19.0,29.0,88,0.01,,,0.02,18.0,meteohub,2013-11-12 12:57:00,
2013-11-12 08:02:00,33.8,30.6,30.06,NW,325,14.0,29.0,88,0.01,,,0.02,18.0,meteohub,2013-11-12 13:02:00,
2013-11-12 08:07:00,33.6,30.4,30.06,NNE,15,9.0,25.0,88,0.01,,,0.02,19.0,meteohub,2013-11-12 13:07:00,
2013-11-12 08:12:00,33.4,30.2,30.06,North,0,12.0,25.0,88,0.01,,,0.02,21.0,meteohub,2013-11-12 13:12:00,
2013-11-12 08:17:00,33.3,30.0,30.06,NNE,17,9.0,22.0,88,0.01,,,0.02,23.0,meteohub,2013-11-12 13:17:00,
2013-11-12 08:22:00,33.1,29.8,30.06,NNW,335,17.0,18.0,88,0.02,,,0.03,23.0,meteohub,2013-11-12 13:22:00,
2013-11-12 08:27:00,33.1,29.8,30.06,NNW,342,10.0,20.0,88,0.02,,,0.03,21.0,meteohub,2013-11-12 13:27:00,
2013-11-12 08:32:00,32.9,29.7,30.08,NNE,28,5.0,20.0,88,0.01,,,0.03,21.0,meteohub,2013-11-12 13:32:00,
2013-11-12 08:37:00,32.7,29.5,30.08,North,355,9.0,24.0,88,0.01,,,0.03,23.0,meteohub,2013-11-12 13:37:00,
2013-11-12 08:42:00,32.7,29.3,30.08,NNW,333,5.0,24.0,87,0.01,,,0.03,21.0,meteohub,2013-11-12 13:42:00,
2013-11-12 08:47:00,32.7,29.3,30.08,NNW,346,11.0,24.0,87,0.01,,,0.03,25.0,meteohub,2013-11-12 13:47:00,
2013-11-12 08:52:00,32.5,29.1,30.08,NW,326,13.0,24.0,87,0.01,,,0.03,26.0,meteohub,2013-11-12 13:52:00,
2013-11-12 08:57:00,32.5,29.1,30.08,NNE,15,9.0,24.0,87,0.01,,,0.03,30.0,meteohub,2013-11-12 13:57:00,
2013-11-12 09:02:00,32.4,28.9,30.08,North,5,8.0,24.0,87,0.01,,,0.03,37.0,meteohub,2013-11-12 14:02:00,
2013-11-12 09:07:00,32.4,28.6,30.08,NNW,346,8.0,23.0,86,0.01,,,0.03,46.0,meteohub,2013-11-12 14:07:00,
2013-11-12 09:12:00,32.5,28.6,30.08,NW,319,6.0,21.0,85,0.01,,,0.03,51.0,meteohub,2013-11-12 14:12:00,
2013-11-12 09:17:00,32.7,28.8,30.08,NNW,333,4.0,15.0,85,0.01,,,0.03,60.0,meteohub,2013-11-12 14:17:00,
2013-11-12 09:22:00,32.7,28.8,30.08,NNW,333,6.0,15.0,85,0.00,,,0.03,49.0,meteohub,2013-11-12 14:22:00,
2013-11-12 09:27:00,33.1,28.8,30.08,NW,322,6.0,11.0,84,0.00,,,0.03,51.0,meteohub,2013-11-12 14:27:00,
2013-11-12 09:32:00,33.1,28.4,30.08,NW,313,4.0,11.0,83,0.00,,,0.03,54.0,meteohub,2013-11-12 14:32:00,
2013-11-12 09:37:00,33.3,28.6,30.08,WNW,302,5.0,11.0,83,0.00,,,0.03,51.0,meteohub,2013-11-12 14:37:00,
2013-11-12 09:42:00,33.4,28.6,30.08,NW,306,6.0,12.0,82,0.00,,,0.03,56.0,meteohub,2013-11-12 14:42:00,
2013-11-12 09:47:00,33.4,28.2,30.08,North,350,2.0,12.0,81,0.00,,,0.03,62.0,meteohub,2013-11-12 14:47:00,
2013-11-12 09:52:00,33.6,28.4,30.08,NW,314,6.0,11.0,81,0.00,,,0.03,54.0,meteohub,2013-11-12 14:52:00,
2013-11-12 09:57:00,33.8,28.2,30.08,North,355,5.0,11.0,80,0.00,,,0.03,60.0,meteohub,2013-11-12 14:57:00,
2013-11-12 10:02:00,34.0,28.2,30.08,NNW,348,6.0,10.0,79,0.00,,,0.03,54.0,meteohub,2013-11-12 15:02:00,
2013-11-12 10:07:00,34.0,27.9,30.08,NNW,348,8.0,10.0,78,0.00,,,0.03,56.0,meteohub,2013-11-12 15:07:00,
2013-11-12 10:12:00,34.2,28.0,30.08,NNW,336,2.0,10.0,78,0.00,,,0.03,51.0,meteohub,2013-11-12 15:12:00,
2013-11-12 10:17:00,34.2,28.0,30.08,North,0,5.0,10.0,78,0.00,,,0.03,51.0,meteohub,2013-11-12 15:17:00,
2013-11-12 10:22:00,34.3,27.5,30.08,NW,321,7.0,10.0,76,0.00,,,0.03,56.0,meteohub,2013-11-12 15:22:00,
2013-11-12 10:27:00,34.3,27.3,30.08,NNW,328,4.0,10.0,75,0.00,,,0.03,65.0,meteohub,2013-11-12 15:27:00,
2013-11-12 10:32:00,34.3,27.0,30.09,NNW,343,7.0,10.0,74,0.00,,,0.03,62.0,meteohub,2013-11-12 15:32:00,
2013-11-12 10:37:00,34.5,26.4,30.09,WNW,290,7.0,15.0,72,0.00,,,0.03,56.0,meteohub,2013-11-12 15:37:00,
2013-11-12 10:42:00,34.5,26.1,30.09,WNW,301,6.0,17.0,71,0.00,,,0.03,53.0,meteohub,2013-11-12 15:42:00,
2013-11-12 10:47:00,34.7,25.9,30.09,WNW,282,13.0,17.0,70,0.00,,,0.03,62.0,meteohub,2013-11-12 15:47:00,
2013-11-12 10:52:00,34.9,25.7,30.09,WNW,299,6.0,17.0,69,0.00,,,0.03,67.0,meteohub,2013-11-12 15:52:00,
2013-11-12 10:57:00,34.9,25.0,30.09,North,355,7.0,13.0,67,0.00,,,0.03,74.0,meteohub,2013-11-12 15:57:00,
2013-11-12 11:02:00,34.9,24.3,30.09,North,5,4.0,14.0,65,0.00,,,0.03,76.0,meteohub,2013-11-12 16:02:00,
2013-11-12 11:07:00,35.1,25.2,30.09,NW,322,9.0,14.0,67,0.00,,,0.03,72.0,meteohub,2013-11-12 16:07:00,
2013-11-12 11:12:00,35.1,24.1,30.09,NW,314,8.0,13.0,64,0.00,,,0.03,79.0,meteohub,2013-11-12 16:12:00,
2013-11-12 11:17:00,35.2,23.9,30.09,NNW,345,10.0,18.0,63,0.00,,,0.03,84.0,meteohub,2013-11-12 16:17:00,
2013-11-12 11:22:00,35.2,23.9,30.09,NNE,22,6.0,18.0,63,0.00,,,0.03,84.0,meteohub,2013-11-12 16:22:00,
2013-11-12 11:27:00,35.4,24.1,30.09,NW,316,9.0,15.0,63,0.00,,,0.03,90.0,meteohub,2013-11-12 16:27:00,
2013-11-12 11:32:00,35.4,23.4,30.09,NNW,329,8.0,19.0,61,0.00,,,0.03,98.0,meteohub,2013-11-12 16:32:00,
2013-11-12 11:37:00,35.4,23.4,30.09,NNW,329,10.0,19.0,61,0.00,,,0.03,109.0,meteohub,2013-11-12 16:37:00,
2013-11-12 11:42:00,35.4,23.0,30.09,NW,304,13.0,19.0,60,0.00,,,0.03,100.0,meteohub,2013-11-12 16:42:00,
2013-11-12 11:47:00,35.6,22.3,30.09,North,5,6.0,17.0,58,0.00,,,0.03,97.0,meteohub,2013-11-12 16:47:00,
2013-11-12 11:52:00,35.6,22.3,30.09,North,349,7.0,17.0,58,0.00,,,0.03,97.0,meteohub,2013-11-12 16:52:00,
2013-11-12 11:57:00,35.4,22.1,30.09,NNW,331,6.0,17.0,58,0.00,,,0.03,93.0,meteohub,2013-11-12 16:57:00,
2013-11-12 12:02:00,35.4,21.7,30.09,NNW,344,8.0,19.0,57,0.00,,,0.03,100.0,meteohub,2013-11-12 17:02:00,
2013-11-12 12:07:00,35.4,20.8,30.09,NW,308,17.0,20.0,55,0.00,,,0.03,113.0,meteohub,2013-11-12 17:07:00,
2013-11-12 12:12:00,35.4,20.5,30.09,NNE,25,11.0,23.0,54,0.00,,,0.03,123.0,meteohub,2013-11-12 17:12:00,
2013-11-12 12:17:00,35.4,20.8,30.09,NNE,13,17.0,23.0,55,0.00,,,0.03,141.0,meteohub,2013-11-12 17:17:00,
2013-11-12 12:22:00,35.6,20.1,30.09,North,5,13.0,21.0,53,0.00,,,0.03,144.0,meteohub,2013-11-12 17:22:00,
2013-11-12 12:27:00,35.8,20.3,30.08,NW,307,5.0,19.0,53,0.00,,,0.03,141.0,meteohub,2013-11-12 17:27:00,
2013-11-12 12:32:00,36.0,21.0,30.08,North,5,4.0,19.0,54,0.00,,,0.03,141.0,meteohub,2013-11-12 17:32:00,
2013-11-12 12:37:00,36.1,21.0,30.09,NW,322,9.0,19.0,54,0.00,,,0.03,135.0,meteohub,2013-11-12 17:37:00,
2013-11-12 12:42:00,36.1,20.7,30.09,NNW,329,12.0,17.0,53,0.00,,,0.03,132.0,meteohub,2013-11-12 17:42:00,
2013-11-12 12:47:00,36.0,20.5,30.09,NNW,344,6.0,21.0,53,0.00,,,0.03,139.0,meteohub,2013-11-12 17:47:00,
2013-11-12 12:52:00,36.1,21.0,30.08,North,355,12.0,21.0,54,0.00,,,0.03,141.0,meteohub,2013-11-12 17:52:00,
2013-11-12 12:57:00,36.3,21.2,30.08,North,350,8.0,21.0,54,0.00,,,0.03,141.0,meteohub,2013-11-12 17:57:00,
2013-11-12 13:02:00,36.3,21.7,30.08,North,5,9.0,14.0,55,0.00,,,0.03,130.0,meteohub,2013-11-12 18:02:00,
2013-11-12 13:07:00,36.7,22.1,30.08,NNE,14,10.0,14.0,55,0.00,,,0.03,123.0,meteohub,2013-11-12 18:07:00,
2013-11-12 13:12:00,36.9,21.7,30.09,West,276,7.0,14.0,54,0.00,,,0.03,125.0,meteohub,2013-11-12 18:12:00,
2013-11-12 13:17:00,36.7,22.1,30.09,NW,307,8.0,15.0,55,0.00,,,0.03,127.0,meteohub,2013-11-12 18:17:00,
2013-11-12 13:22:00,36.7,21.6,30.09,NNE,32,8.0,15.0,54,0.00,,,0.03,127.0,meteohub,2013-11-12 18:22:00,
2013-11-12 13:27:00,36.5,21.4,30.09,WNW,302,13.0,19.0,54,0.00,,,0.03,134.0,meteohub,2013-11-12 18:27:00,
2013-11-12 13:32:00,36.5,21.9,30.10,NNW,346,4.0,19.0,55,0.00,,,0.03,130.0,meteohub,2013-11-12 18:32:00,
2013-11-12 13:37:00,36.5,21.9,30.10,NNE,20,12.0,18.0,55,0.00,,,0.03,121.0,meteohub,2013-11-12 18:37:00,
2013-11-12 13:42:00,36.3,21.7,30.10,North,355,9.0,20.0,55,0.00,,,0.03,116.0,meteohub,2013-11-12 18:42:00,
2013-11-12 13:47:00,36.1,21.6,30.10,NNW,344,12.0,20.0,55,0.00,,,0.03,111.0,meteohub,2013-11-12 18:47:00,
2013-11-12 13:52:00,36.1,21.6,30.10,North,355,8.0,24.0,55,0.00,,,0.03,104.0,meteohub,2013-11-12 18:52:00,
2013-11-12 13:57:00,36.1,21.6,30.09,NNW,341,7.0,24.0,55,0.00,,,0.03,98.0,meteohub,2013-11-12 18:57:00,
2013-11-12 14:02:00,36.0,21.4,30.10,NNW,338,10.0,24.0,55,0.00,,,0.03,100.0,meteohub,2013-11-12 19:02:00,
2013-11-12 14:07:00,36.0,21.4,30.10,NNE,19,11.0,21.0,55,0.00,,,0.03,95.0,meteohub,2013-11-12 19:07:00,
2013-11-12 14:12:00,35.8,21.6,30.10,NNW,329,12.0,21.0,56,0.00,,,0.03,105.0,meteohub,2013-11-12 19:12:00,
2013-11-12 14:17:00,35.8,21.6,30.11,North,5,5.0,19.0,56,0.00,,,0.03,107.0,meteohub,2013-11-12 19:17:00,
2013-11-12 14:22:00,35.8,21.6,30.11,NNW,329,9.0,23.0,56,0.00,,,0.03,109.0,meteohub,2013-11-12 19:22:00,
2013-11-12 14:27:00,35.8,21.6,30.12,North,355,12.0,23.0,56,0.00,,,0.03,93.0,meteohub,2013-11-12 19:27:00,
2013-11-12 14:32:00,35.8,20.8,30.12,NW,325,8.0,19.0,54,0.00,,,0.03,86.0,meteohub,2013-11-12 19:32:00,
2013-11-12 14:37:00,35.6,20.7,30.12,NNW,340,14.0,21.0,54,0.00,,,0.03,86.0,meteohub,2013-11-12 19:37:00,
2013-11-12 14:42:00,35.4,20.5,30.12,NNW,345,10.0,21.0,54,0.00,,,0.03,81.0,meteohub,2013-11-12 19:42:00,
2013-11-12 14:47:00,35.4,20.5,30.12,NW,311,14.0,21.0,54,0.00,,,0.03,81.0,meteohub,2013-11-12 19:47:00,
2013-11-12 14:52:00,35.2,20.3,30.13,NW,315,11.0,20.0,54,0.00,,,0.03,76.0,meteohub,2013-11-12 19:52:00,
2013-11-12 14:57:00,35.1,20.5,30.13,North,350,13.0,20.0,55,0.00,,,0.03,74.0,meteohub,2013-11-12 19:57:00,
2013-11-12 15:02:00,35.1,20.5,30.13,NW,306,7.0,20.0,55,0.00,,,0.03,67.0,meteohub,2013-11-12 20:02:00,
2013-11-12 15:07:00,35.1,20.5,30.13,North,5,8.0,20.0,55,0.00,,,0.03,58.0,meteohub,2013-11-12 20:07:00,
2013-11-12 15:12:00,35.1,21.0,30.13,NNW,346,12.0,18.0,56,0.00,,,0.03,53.0,meteohub,2013-11-12 20:12:00,
2013-11-12 15:17:00,35.1,21.0,30.14,NW,323,9.0,18.0,56,0.00,,,0.03,47.0,meteohub,2013-11-12 20:17:00,
2013-11-12 15:22:00,34.9,20.8,30.14,NW,315,10.0,18.0,56,0.00,,,0.03,46.0,meteohub,2013-11-12 20:22:00,
2013-11-12 15:27:00,34.9,20.8,30.14,NW,317,10.0,16.0,56,0.00,,,0.03,40.0,meteohub,2013-11-12 20:27:00,
2013-11-12 15:32:00,34.7,20.1,30.14,NNW,347,7.0,16.0,55,0.00,,,0.03,39.0,meteohub,2013-11-12 20:32:00,
2013-11-12 15:37:00,34.5,20.5,30.14,NW,312,15.0,21.0,56,0.00,,,0.03,39.0,meteohub,2013-11-12 20:37:00,
2013-11-12 15:42:00,34.5,20.5,30.15,NW,323,6.0,21.0,56,0.00,,,0.03,37.0,meteohub,2013-11-12 20:42:00,
2013-11-12 15:47:00,34.3,20.3,30.15,North,0,10.0,18.0,56,0.00,,,0.03,30.0,meteohub,2013-11-12 20:47:00,
2013-11-12 15:52:00,34.3,20.3,30.15,NNW,338,7.0,18.0,56,0.00,,,0.03,25.0,meteohub,2013-11-12 20:52:00,
2013-11-12 15:57:00,34.3,20.3,30.15,NNW,341,6.0,24.0,56,0.00,,,0.03,21.0,meteohub,2013-11-12 20:57:00,
2013-11-12 16:02:00,34.3,20.3,30.16,WNW,303,11.0,24.0,56,0.00,,,0.03,21.0,meteohub,2013-11-12 21:02:00,
2013-11-12 16:07:00,34.2,20.1,30.16,NW,319,12.0,24.0,56,0.00,,,0.03,16.0,meteohub,2013-11-12 21:07:00,
2013-11-12 16:12:00,34.2,20.1,30.16,NW,313,14.0,19.0,56,0.00,,,0.03,12.0,meteohub,2013-11-12 21:12:00,
2013-11-12 16:17:00,34.0,19.9,30.15,NNW,328,7.0,19.0,56,0.00,,,0.03,9.0,meteohub,2013-11-12 21:17:00,
2013-11-12 16:22:00,33.8,19.8,30.15,NW,305,13.0,17.0,56,0.00,,,0.03,5.0,meteohub,2013-11-12 21:22:00,
2013-11-12 16:27:00,33.6,19.9,30.16,NW,321,4.0,20.0,57,0.00,,,0.03,0.0,meteohub,2013-11-12 21:27:00,
2013-11-12 16:32:00,33.6,19.9,30.16,NNE,21,9.0,20.0,57,0.00,,,0.03,0.0,meteohub,2013-11-12 21:32:00,
2013-11-12 16:37:00,33.6,19.9,30.16,NNW,348,6.0,20.0,57,0.00,,,0.03,0.0,meteohub,2013-11-12 21:37:00,
2013-11-12 16:42:00,33.4,19.8,30.16,NW,319,5.0,15.0,57,0.00,,,0.03,5.0,meteohub,2013-11-12 21:42:00,
2013-11-12 16:47:00,33.4,19.8,30.16,NNW,332,10.0,15.0,57,0.00,,,0.03,0.0,meteohub,2013-11-12 21:47:00,
2013-11-12 16:52:00,33.4,19.8,30.17,North,350,4.0,15.0,57,0.00,,,0.03,0.0,meteohub,2013-11-12 21:52:00,
2013-11-12 16:57:00,33.4,19.8,30.17,NNW,334,8.0,15.0,57,0.00,,,0.03,0.0,meteohub,2013-11-12 21:57:00,
2013-11-12 17:02:00,33.4,19.8,30.17,NNE,24,10.0,15.0,57,0.00,,,0.03,0.0,meteohub,2013-11-12 22:02:00,
2013-11-12 17:07:00,33.4,19.8,30.18,NW,323,8.0,15.0,57,0.00,,,0.03,0.0,meteohub,2013-11-12 22:07:00,
2013-11-12 17:12:00,33.4,20.3,30.17,NNW,331,11.0,15.0,58,0.00,,,0.03,0.0,meteohub,2013-11-12 22:12:00,
2013-11-12 17:17:00,33.4,20.3,30.17,NNW,331,16.0,17.0,58,0.00,,,0.03,0.0,meteohub,2013-11-12 22:17:00,
2013-11-12 17:22:00,33.4,19.8,30.18,North,0,8.0,17.0,57,0.00,,,0.03,0.0,meteohub,2013-11-12 22:22:00,
2013-11-12 17:27:00,33.4,19.8,30.18,North,0,7.0,17.0,57,0.00,,,0.03,0.0,meteohub,2013-11-12 22:27:00,
2013-11-12 17:32:00,33.4,20.3,30.18,NW,305,9.0,18.0,58,0.00,,,0.03,0.0,meteohub,2013-11-12 22:32:00,
2013-11-12 17:37:00,33.3,19.8,30.18,NW,319,8.0,19.0,57,0.00,,,0.03,0.0,meteohub,2013-11-12 22:37:00,
2013-11-12 17:42:00,33.3,19.8,30.18,NW,306,11.0,19.0,57,0.00,,,0.03,0.0,meteohub,2013-11-12 22:42:00,
2013-11-12 17:47:00,33.3,19.8,30.18,NE,34,8.0,24.0,57,0.00,,,0.03,0.0,meteohub,2013-11-12 22:47:00,
2013-11-12 17:52:00,33.3,19.8,30.18,NNW,336,13.0,24.0,57,0.00,,,0.03,0.0,meteohub,2013-11-12 22:52:00,
2013-11-12 17:57:00,33.3,19.8,30.19,NNW,334,8.0,22.0,57,0.00,,,0.03,0.0,meteohub,2013-11-12 22:57:00,
2013-11-12 18:02:00,33.1,19.6,30.18,NNW,333,5.0,24.0,57,0.00,,,0.03,0.0,meteohub,2013-11-12 23:02:00,
2013-11-12 18:07:00,33.1,19.9,30.19,NW,305,9.0,24.0,58,0.00,,,0.03,0.0,meteohub,2013-11-12 23:07:00,
2013-11-12 18:12:00,33.1,19.9,30.19,North,0,6.0,24.0,58,0.00,,,0.03,0.0,meteohub,2013-11-12 23:12:00,
2013-11-12 18:17:00,32.9,19.8,30.20,NNW,338,6.0,23.0,58,0.00,,,0.03,0.0,meteohub,2013-11-12 23:17:00,
2013-11-12 18:22:00,32.9,19.8,30.20,NNE,24,6.0,23.0,58,0.00,,,0.03,0.0,meteohub,2013-11-12 23:22:00,
2013-11-12 18:27:00,32.9,19.8,30.20,NNW,336,9.0,23.0,58,0.00,,,0.03,0.0,meteohub,2013-11-12 23:27:00,
2013-11-12 18:32:00,32.7,19.9,30.20,NW,319,8.0,22.0,59,0.00,,,0.03,0.0,meteohub,2013-11-12 23:32:00,
2013-11-12 18:37:00,32.7,19.9,30.20,NW,311,8.0,22.0,59,0.00,,,0.03,0.0,meteohub,2013-11-12 23:37:00,
2013-11-12 18:42:00,32.7,19.6,30.21,North,5,7.0,20.0,58,0.00,,,0.03,0.0,meteohub,2013-11-12 23:42:00,
2013-11-12 18:47:00,32.7,19.9,30.21,NNW,333,19.0,20.0,59,0.00,,,0.03,0.0,meteohub,2013-11-12 23:47:00,
2013-11-12 18:52:00,32.5,19.8,30.21,North,0,6.0,20.0,59,0.00,,,0.03,0.0,meteohub,2013-11-12 23:52:00,
2013-11-12 18:57:00,32.5,19.4,30.21,North,351,13.0,21.0,58,0.00,,,0.03,0.0,meteohub,2013-11-12 23:57:00,
2013-11-12 19:02:00,32.5,19.4,30.21,NNW,334,12.0,22.0,58,0.00,,,0.03,0.0,meteohub,2013-11-13 00:02:00,
2013-11-12 19:07:00,32.4,19.2,30.22,North,355,9.0,22.0,58,0.00,,,0.00,0.0,meteohub,2013-11-13 00:07:00,
2013-11-12 19:12:00,32.4,19.2,30.22,NW,317,8.0,17.0,58,0.00,,,0.00,0.0,meteohub,2013-11-13 00:12:00,
2013-11-12 19:17:00,32.4,19.2,30.21,North,0,7.0,15.0,58,0.00,,,0.00,0.0,meteohub,2013-11-13 00:17:00,
2013-11-12 19:22:00,32.2,18.7,30.22,North,0,6.0,15.0,57,0.00,,,0.00,0.0,meteohub,2013-11-13 00:22:00,
2013-11-12 19:27:00,32.2,19.0,30.22,NNE,13,13.0,16.0,58,0.00,,,0.00,0.0,meteohub,2013-11-13 00:27:00,
2013-11-12 19:32:00,32.0,18.5,30.22,NW,319,21.0,21.0,57,0.00,,,0.00,0.0,meteohub,2013-11-13 00:32:00,
2013-11-12 19:37:00,31.8,18.3,30.22,NW,309,7.0,23.0,57,0.00,,,0.00,0.0,meteohub,2013-11-13 00:37:00,
2013-11-12 19:42:00,31.8,18.3,30.21,North,5,8.0,23.0,57,0.00,,,0.00,0.0,meteohub,2013-11-13 00:42:00,
2013-11-12 19:47:00,31.8,18.7,30.21,NW,317,12.0,23.0,58,0.00,,,0.00,0.0,meteohub,2013-11-13 00:47:00,
2013-11-12 19:52:00,31.6,18.5,30.21,NW,317,7.0,17.0,58,0.00,,,0.00,0.0,meteohub,2013-11-13 00:52:00,
2013-11-12 19:57:00,31.6,18.5,30.21,NNW,327,11.0,19.0,58,0.00,,,0.00,0.0,meteohub,2013-11-13 00:57:00,
2013-11-12 20:02:00,31.6,18.5,30.21,NNW,344,13.0,23.0,58,0.00,,,0.00,0.0,meteohub,2013-11-13 01:02:00,
2013-11-12 20:07:00,31.5,18.3,30.21,NNW,331,9.0,23.0,58,0.00,,,0.00,0.0,meteohub,2013-11-13 01:07:00,
2013-11-12 20:12:00,31.5,18.3,30.22,WNW,302,15.0,23.0,58,0.00,,,0.00,0.0,meteohub,2013-11-13 01:12:00,
2013-11-12 20:17:00,31.5,18.3,30.22,NW,306,11.0,22.0,58,0.00,,,0.00,0.0,meteohub,2013-11-13 01:17:00,
2013-11-12 20:22:00,31.5,18.9,30.22,NW,325,10.0,22.0,59,0.00,,,0.00,0.0,meteohub,2013-11-13 01:22:00,
2013-11-12 20:27:00,31.3,18.7,30.22,North,0,10.0,22.0,59,0.00,,,0.00,0.0,meteohub,2013-11-13 01:27:00,
2013-11-12 20:32:00,31.3,18.7,30.22,NW,307,8.0,20.0,59,0.00,,,0.00,0.0,meteohub,2013-11-13 01:32:00,
2013-11-12 20:37:00,31.3,18.7,30.22,NNW,329,7.0,20.0,59,0.00,,,0.00,0.0,meteohub,2013-11-13 01:37:00,
2013-11-12 20:42:00,31.1,18.5,30.23,NNW,335,7.0,20.0,59,0.00,,,0.00,0.0,meteohub,2013-11-13 01:42:00,
2013-11-12 20:47:00,30.9,18.3,30.22,NW,324,10.0,17.0,59,0.00,,,0.00,0.0,meteohub,2013-11-13 01:47:00,
2013-11-12 20:52:00,30.9,18.7,30.22,NNW,346,8.0,19.0,60,0.00,,,0.00,0.0,meteohub,2013-11-13 01:52:00,
2013-11-12 20:57:00,30.9,18.7,30.22,NNW,328,12.0,19.0,60,0.00,,,0.00,0.0,meteohub,2013-11-13 01:57:00,
2013-11-12 21:02:00,30.9,18.7,30.22,NNW,331,9.0,19.0,60,0.00,,,0.00,0.0,meteohub,2013-11-13 02:02:00,
2013-11-12 21:07:00,30.9,18.7,30.22,NNW,340,9.0,16.0,60,0.00,,,0.00,0.0,meteohub,2013-11-13 02:07:00,
2013-11-12 21:12:00,30.7,18.9,30.23,North,5,6.0,16.0,61,0.00,,,0.00,0.0,meteohub,2013-11-13 02:12:00,
2013-11-12 21:17:00,30.7,18.9,30.22,North,11,10.0,14.0,61,0.00,,,0.00,0.0,meteohub,2013-11-13 02:17:00,
2013-11-12 21:22:00,30.6,18.7,30.23,North,11,6.0,14.0,61,0.00,,,0.00,0.0,meteohub,2013-11-13 02:22:00,
2013-11-12 21:27:00,30.6,18.7,30.22,NNW,346,7.0,14.0,61,0.00,,,0.00,0.0,meteohub,2013-11-13 02:27:00,
2013-11-12 21:32:00,30.6,18.7,30.22,NNW,329,7.0,14.0,61,0.00,,,0.00,0.0,meteohub,2013-11-13 02:32:00,
2013-11-12 21:37:00,30.4,18.9,30.22,North,355,5.0,13.0,62,0.00,,,0.00,0.0,meteohub,2013-11-13 02:37:00,
2013-11-12 21:42:00,30.4,18.9,30.22,North,355,5.0,14.0,62,0.00,,,0.00,0.0,meteohub,2013-11-13 02:42:00,
2013-11-12 21:47:00,30.2,18.7,30.22,North,0,7.0,14.0,62,0.00,,,0.00,0.0,meteohub,2013-11-13 02:47:00,
2013-11-12 21:52:00,30.2,19.0,30.22,North,355,8.0,13.0,63,0.00,,,0.00,0.0,meteohub,2013-11-13 02:52:00,
2013-11-12 21:57:00,30.2,19.0,30.22,NW,322,8.0,13.0,63,0.00,,,0.00,0.0,meteohub,2013-11-13 02:57:00,
2013-11-12 22:02:00,30.0,19.0,30.22,North,355,8.0,14.0,63,0.00,,,0.00,0.0,meteohub,2013-11-13 03:02:00,
2013-11-12 22:07:00,30.0,19.0,30.22,NNW,338,5.0,15.0,63,0.00,,,0.00,0.0,meteohub,2013-11-13 03:07:00,
2013-11-12 22:12:00,29.8,18.9,30.22,NNW,327,8.0,15.0,63,0.00,,,0.00,0.0,meteohub,2013-11-13 03:12:00,
2013-11-12 22:17:00,29.8,19.2,30.22,NW,322,7.0,14.0,64,0.00,,,0.00,0.0,meteohub,2013-11-13 03:17:00,
2013-11-12 22:22:00,29.7,19.0,30.22,NW,324,8.0,12.0,64,0.00,,,0.00,0.0,meteohub,2013-11-13 03:22:00,
2013-11-12 22:27:00,29.7,19.0,30.22,North,5,5.0,12.0,64,0.00,,,0.00,0.0,meteohub,2013-11-13 03:27:00,
2013-11-12 22:33:00,29.5,18.9,30.22,NW,306,6.0,11.0,64,0.00,,,0.00,0.0,meteohub,2013-11-13 03:33:00,
2013-11-12 22:38:00,29.3,19.0,30.22,NW,321,5.0,11.0,65,0.00,,,0.00,0.0,meteohub,2013-11-13 03:38:00,
2013-11-12 22:43:00,29.1,18.9,30.22,NW,325,2.0,13.0,65,0.00,,,0.00,0.0,meteohub,2013-11-13 03:43:00,
2013-11-12 22:48:00,29.1,18.9,30.22,North,355,6.0,13.0,65,0.00,,,0.00,0.0,meteohub,2013-11-13 03:48:00,
2013-11-12 22:53:00,28.9,19.0,30.22,NNW,333,5.0,10.0,66,0.00,,,0.00,0.0,meteohub,2013-11-13 03:53:00,
2013-11-12 22:58:00,28.8,18.9,30.22,NNW,340,8.0,9.0,66,0.00,,,0.00,0.0,meteohub,2013-11-13 03:58:00,
2013-11-12 23:03:00,28.8,19.2,30.22,NNW,342,8.0,9.0,67,0.00,,,0.00,0.0,meteohub,2013-11-13 04:03:00,
2013-11-12 23:09:00,28.8,19.2,30.22,NW,325,6.0,12.0,67,0.00,,,0.00,0.0,meteohub,2013-11-13 04:09:00,
2013-11-12 23:14:00,28.8,19.2,30.22,NNW,328,5.0,12.0,67,0.00,,,0.00,0.0,meteohub,2013-11-13 04:14:00,
2013-11-12 23:19:00,28.8,19.2,30.22,WNW,296,7.0,12.0,67,0.00,,,0.00,0.0,meteohub,2013-11-13 04:19:00,
2013-11-12 23:24:00,28.6,19.0,30.22,NNW,329,5.0,11.0,67,0.00,,,0.00,0.0,meteohub,2013-11-13 04:24:00,
2013-11-12 23:29:00,28.6,19.0,30.22,NW,323,4.0,11.0,67,0.00,,,0.00,0.0,meteohub,2013-11-13 04:29:00,
2013-11-12 23:34:00,28.6,19.0,30.22,NNW,340,2.0,13.0,67,0.00,,,0.00,0.0,meteohub,2013-11-13 04:34:00,
2013-11-12 23:39:00,28.4,18.9,30.23,North,355,2.0,13.0,67,0.00,,,0.00,0.0,meteohub,2013-11-13 04:39:00,
2013-11-12 23:44:00,28.2,18.7,30.23,NW,315,2.0,13.0,67,0.00,,,0.00,0.0,meteohub,2013-11-13 04:44:00,
2013-11-12 23:50:00,28.2,19.0,30.23,NW,310,6.0,9.0,68,0.00,,,0.00,0.0,meteohub,2013-11-13 04:50:00,
2013-11-12 23:55:00,28.2,19.0,30.23,WNW,299,6.0,8.0,68,0.00,,,0.00,0.0,meteohub,2013-11-13 04:55:00,